RH
99 97 92 93 94 94 93 94 94 94 93 90 89 88 89 89 89 90 89 88 86 80 78 80 80 79 78 79 81 81 81 82 82 80 78 76 79 76 80 83 81 77 73
98 97 93 94 93 94 94 94 94 94 91 89 89 91 92 91 89 88 88 90 87 80 80 80 80 79 79 81 83 83 83 86 87 84 81 76 79 78 80 83 82 76 72
92 98 96 95 94 94 93 92 92 90 87 87 88 90 90 89 88 87 88 89 86 82 80 80 81 82 83 84 85 85 85 86 87 86 82 79 81 81 79 82 82 77 73
93 98 97 94 93 93 92 92 92 89 85 88 86 85 85 84 87 87 89 90 86 82 79 78 81 85 88 89 89 89 88 89 90 88 87 81 77 77 79 81 81 77 74
89 92 93 92 90 88 89 91 87 89 91 91 91 87 87 87 88 89 90 90 86 83 82 81 85 88 91 93 94 94 92 92 93 90 90 89 86 75 77 82 81 81 78
91 90 94 94 93 92 90 89 89 89 92 93 90 84 83 83 84 86 86 85 82 77 83 82 81 88 94 95 95 95 95 95 94 94 94 92 89 83 76 80 86 84 81
92 92 92 94 92 91 88 85 82 85 88 83 81 78 78 76 82 79 74 73 71 71 70 69 71 75 78 85 88 88 90 93 94 96 96 94 94 85 80 79 84 85 81
89 90 91 92 93 89 81 80 82 84 81 79 75 72 73 72 72 71 70 69 69 68 68 69 69 69 69 69 70 78 87 86 88 91 91 88 77 78 77 81 84 89 84
92 92 92 90 78 84 85 84 83 80 77 75 74 74 74 73 73 70 69 68 68 67 67 67 67 68 67 67 68 69 72 68 76 86 67 66 69 71 70 75 82 85 86
91 91 95 95 86 87 86 80 80 76 73 73 73 74 76 74 70 68 69 67 67 68 66 66 65 64 64 64 66 66 64 66 65 75 64 60 63 64 67 72 72 83 86
76 80 90 92 91 86 81 76 77 70 71 73 74 74 78 81 79 73 68 68 68 67 66 65 64 64 65 65 64 64 63 68 65 72 62 66 64 62 66 73 80 82 89
69 76 88 90 88 78 65 85 85 74 81 82 82 84 84 85 75 72 70 71 69 68 66 67 65 66 69 69 66 67 65 69 69 74 68 72 68 67 72 73 73 74 80
61 76 78 82 82 82 82 90 91 91 88 86 86 86 85 81 85 83 83 84 84 74 75 74 74 73 74 73 67 71 64 66 80 76 72 71 72 68 68 69 72 73 81
63 74 77 79 80 88 88 90 90 82 89 90 88 86 86 85 85 87 84 90 86 88 85 85 81 78 76 72 69 67 65 68 68 69 80 69 68 70 70 68 68 69 70
65 75 78 79 82 86 87 94 92 90 88 90 88 86 87 84 87 87 90 87 88 87 84 80 79 78 76 74 69 69 69 71 70 68 71 68 68 67 66 70 69 69 69
68 75 79 79 83 83 88 90 93 92 90 89 90 88 86 85 85 86 88 86 82 86 87 83 82 84 82 76 72 71 72 68 71 63 65 71 67 63 66 67 68 70 70
68 74 77 80 79 80 84 88 88 86 85 89 88 87 85 84 86 89 89 86 88 83 84 81 80 81 78 70 75 74 74 71 68 63 66 63 61 61 65 65 67 68 70
70 72 74 63 76 81 83 86 84 88 88 88 89 88 86 84 86 90 86 88 84 82 81 81 81 79 78 77 77 77 78 76 63 67 62 61 58 53 61 64 65 66 69
67 71 74 73 76 80 85 84 86 86 86 86 88 88 85 84 85 88 86 88 84 82 83 78 80 85 80 76 68 74 80 80 68 64 62 64 59 57 56 60 65 65 69
68 69 73 73 78 80 83 85 89 88 88 85 87 87 84 85 85 86 85 85 82 79 80 83 82 82 79 80 65 72 83 77 68 75 72 60 58 59 58 58 64 58 67
74 74 74 75 79 77 79 80 84 89 88 88 86 84 84 85 85 88 88 83 82 76 82 79 84 83 76 75 80 80 79 80 64 76 72 64 62 56 59 61 56 58 62
68 70 72 69 76 69 66 80 81 82 84 87 89 87 84 84 85 81 86 85 82 80 81 81 83 84 79 76 84 85 82 73 70 68 73 61 65 60 59 60 59 61 64
65 68 68 68 70 70 68 74 77 82 83 88 90 89 86 82 84 86 86 86 85 84 84 83 83 82 85 81 76 82 81 83 80 74 72 66 64 67 65 62 62 64 64
61 61 60 64 69 66 66 70 66 73 74 82 84 90 88 81 81 83 84 86 84 84 84 83 80 83 79 85 83 75 79 80 92 84 70 71 63 63 68 65 68 64 63
59 63 61 62 64 62 66 63 67 68 78 82 87 87 86 81 77 77 83 83 82 85 86 82 80 81 78 77 84 86 86 84 83 85 79 73 66 64 60 66 67 72 64
60 61 62 61 61 64 65 65 63 68 76 83 85 84 84 82 82 82 80 83 83 85 87 83 76 73 74 74 77 84 87 88 86 89 80 76 76 67 60 62 62 69 60
Wind_Speed
4 5 9 9 8 9 11 10 10 11 12 13 13 13 13 13 13 11 10 10 10 11 11 11 10 10 10 11 10 10 9 9 9 10 12 11 9 7 6 6 6 5 8
7 6 10 9 9 10 10 10 10 11 12 13 13 11 10 11 12 11 11 11 9 8 9 9 9 10 10 10 10 9 8 8 9 10 12 12 10 7 4 4 5 5 7
9 6 7 9 9 10 11 11 11 12 12 12 11 11 10 11 12 12 12 11 11 12 11 9 9 10 11 11 10 10 10 10 10 12 12 5 6 8 5 3 4 6 7
8 6 6 10 10 11 11 11 12 12 11 11 10 10 9 11 12 11 11 10 10 11 11 11 11 10 9 8 8 8 9 9 8 10 5 5 6 10 11 5 5 5 6
7 6 7 9 11 11 12 12 11 12 13 12 12 13 13 13 15 14 14 12 12 13 12 12 13 12 10 8 8 8 9 8 8 6 4 4 4 8 12 8 6 5 6
8 7 9 10 10 12 12 14 14 13 12 11 14 14 15 15 15 16 15 16 16 17 16 17 16 16 13 10 10 9 10 9 7 4 4 6 5 11 12 7 6 6 5
8 7 7 9 10 13 16 15 14 14 15 15 17 16 17 16 16 18 19 18 18 18 18 18 18 19 19 18 16 14 12 12 7 5 5 5 6 14 13 14 8 8 8
9 6 6 10 12 15 15 15 15 15 16 17 17 18 18 19 18 19 19 18 18 18 18 18 18 18 18 18 18 17 15 15 8 7 7 7 15 16 15 15 10 8 9
8 6 5 7 13 15 14 15 16 17 17 17 18 18 19 18 19 19 19 19 18 18 19 19 18 17 17 18 18 18 16 18 8 6 9 7 18 17 17 21 17 9 11
6 6 6 6 6 7 7 16 17 17 17 17 18 18 18 18 19 18 18 18 18 18 18 18 17 17 17 18 19 19 17 16 8 7 7 9 18 17 17 18 17 19 11
6 6 6 6 6 6 7 10 14 17 16 17 16 17 12 6 7 11 17 18 17 18 18 18 18 18 17 17 19 19 16 6 8 6 5 18 18 17 17 15 21 20 22
8 5 6 7 6 6 6 6 6 8 6 6 6 7 6 6 9 10 15 17 19 16 17 17 17 17 13 6 6 11 6 7 6 6 5 19 18 20 21 22 20 19 20
7 4 6 7 7 6 6 4 3 3 4 5 7 6 6 6 5 5 4 5 5 12 6 8 8 6 8 6 7 6 7 7 5 5 10 20 21 20 21 21 21 23 24
8 6 6 8 8 7 4 4 4 5 4 4 5 6 5 5 6 5 5 4 5 4 5 5 4 6 7 7 7 7 7 6 5 4 8 20 21 23 24 22 20 21 21
10 7 7 7 9 8 7 4 4 4 5 5 5 5 4 6 6 5 4 4 4 3 4 4 4 5 5 6 6 6 7 8 7 5 5 20 22 25 24 23 24 22 21
10 9 7 7 8 9 7 6 5 4 5 4 5 5 6 6 6 5 5 5 5 4 4 4 4 4 4 4 5 6 6 6 6 8 6 8 23 24 25 26 24 24 23
9 9 8 8 8 10 9 7 5 4 5 4 5 6 6 6 7 6 5 5 4 4 4 4 4 3 3 4 4 4 5 5 7 8 8 7 10 21 23 24 23 23 23
11 12 9 10 10 11 10 7 6 5 4 4 4 4 6 7 7 6 5 5 4 3 3 3 4 4 5 5 3 4 4 5 6 7 9 8 8 9 13 23 22 23 23
12 12 10 10 11 10 8 7 6 6 5 4 4 4 6 7 7 6 5 4 4 3 4 4 5 4 6 6 4 4 3 4 5 7 9 9 10 9 7 17 19 21 21
11 10 9 8 10 10 8 7 5 4 4 4 4 4 6 5 7 6 5 5 3 4 5 4 6 4 4 5 4 4 3 3 5 5 6 7 8 10 9 10 7 9 20
9 10 12 13 11 11 8 7 5 4 3 3 4 6 6 6 6 6 4 4 4 6 4 5 2 5 8 7 2 3 3 1 6 3 4 5 9 10 10 8 7 6 7
15 14 13 13 13 11 9 4 4 5 3 3 4 5 6 7 6 6 5 5 5 5 5 5 4 2 5 7 3 2 5 4 4 3 3 7 9 7 9 9 9 9 7
16 15 14 14 14 11 10 7 6 5 4 3 3 4 4 6 6 5 5 5 5 4 4 4 4 5 4 5 9 3 2 2 6 3 4 5 9 6 7 9 8 9 8
16 14 15 14 15 11 13 9 14 6 7 4 5 5 5 5 5 5 5 5 5 4 5 5 5 5 3 5 3 6 5 1 1 5 4 4 9 6 6 7 6 7 8
17 15 13 14 13 13 12 13 10 10 4 6 6 8 7 5 5 5 5 6 6 4 5 6 7 8 6 4 3 1 3 2 3 1 4 8 7 6 7 5 5 5 9
15 15 14 15 14 14 13 13 14 14 12 10 8 7 5 5 4 5 6 5 5 5 5 6 7 8 5 5 4 4 3 2 2 2 3 6 6 3 7 4 5 5 6
Wind_Direction
156 159 132 119 115 111 104 103 101 98 95 94 91 86 86 85 82 73 70 73 77 78 77 75 70 61 52 51 44 40 35 24 17 6 355 342 344 351 10 6 352 345 346
134 141 124 117 121 112 107 102 98 94 93 90 86 85 83 88 82 77 65 61 55 69 76 74 66 56 46 43 40 31 30 22 7 4 358 358 334 325 335 350 337 332 337
127 116 115 123 120 111 109 106 100 97 94 92 88 85 82 84 74 69 63 56 49 55 57 60 63 52 42 35 29 22 18 18 9 358 6 348 335 304 305 307 312 320 327
119 105 116 123 111 106 102 95 87 86 94 86 86 88 91 90 85 70 65 58 53 50 46 46 47 43 36 34 27 19 15 15 7 1 358 351 350 329 288 263 269 293 311
109 111 120 122 122 117 106 103 96 80 69 66 63 62 59 62 67 65 61 56 55 52 46 44 42 35 24 19 21 12 5 5 2 3 347 344 334 324 303 285 266 281 299
106 95 99 102 105 100 98 93 89 85 83 88 81 86 78 78 76 74 68 64 59 57 54 53 47 41 32 24 21 11 359 352 0 352 342 341 338 334 344 282 250 266 272
101 102 104 109 105 104 95 92 92 94 87 87 85 82 82 80 82 77 72 67 62 58 56 53 50 47 42 35 30 22 17 17 26 6 1 354 347 354 342 336 268 255 254
112 98 100 104 98 100 103 101 97 93 91 85 87 82 80 78 77 73 69 65 62 57 54 50 47 45 43 38 31 24 26 25 28 23 30 19 6 1 354 352 325 232 249
100 98 87 102 107 102 100 97 94 92 92 91 88 86 82 80 74 70 65 61 58 55 53 48 44 41 38 35 31 28 29 30 24 15 35 14 1 7 5 13 356 294 254
104 104 100 87 91 90 98 99 95 93 94 93 90 87 82 75 72 69 62 64 61 57 54 51 45 39 34 32 30 29 29 26 17 11 25 9 5 6 6 10 2 3 282
116 112 107 102 94 93 85 98 95 96 93 88 86 86 73 68 62 60 70 66 62 57 51 48 43 38 33 28 29 28 25 18 17 13 14 12 10 10 13 16 23 23 16
145 139 139 128 118 94 99 90 78 83 75 77 81 83 77 69 74 69 65 60 58 50 47 43 41 36 28 22 19 22 16 9 15 11 14 22 22 28 30 26 22 22 21
151 137 153 140 130 115 110 100 84 80 83 80 78 80 77 79 69 59 57 45 35 42 35 31 26 26 18 20 18 17 15 15 11 13 12 29 30 31 31 29 29 28 31
155 158 155 142 132 118 106 99 103 99 82 84 81 84 92 82 71 65 64 47 48 30 31 25 23 14 19 20 17 14 14 15 10 16 17 35 34 35 30 27 25 25 25
162 161 161 144 133 125 113 106 93 88 89 92 84 80 87 90 88 83 68 60 50 38 40 32 24 18 19 15 13 14 18 13 13 17 22 40 39 35 28 30 25 22 18
159 161 151 144 134 127 120 113 109 100 100 88 89 93 87 97 95 85 79 65 52 36 36 34 25 21 15 7 10 13 21 19 20 29 35 34 41 32 28 25 23 21 19
157 148 152 144 141 130 126 122 118 115 101 97 99 95 95 90 88 89 80 66 51 31 41 24 19 17 23 17 16 11 22 26 43 36 43 41 36 31 27 22 21 19 19
153 162 155 153 148 138 134 131 125 118 108 102 102 103 97 92 93 88 85 70 51 37 29 37 20 20 12 17 359 19 31 43 40 47 56 50 42 32 24 23 20 16 15
161 162 160 153 150 137 126 122 121 119 111 113 107 101 98 93 92 95 92 84 67 51 46 37 41 30 12 3 5 28 40 64 49 61 57 52 43 35 26 18 18 14 14
163 164 152 148 142 136 124 117 100 99 98 108 106 100 102 100 99 96 86 80 70 64 48 40 50 17 10 342 6 30 65 96 79 72 68 57 42 31 24 15 4 4 10
161 160 159 154 157 144 140 139 128 132 125 103 102 110 101 96 94 95 94 88 78 73 64 46 65 44 26 359 29 20 30 198 45 71 65 62 39 23 15 15 9 358 351
171 173 169 166 160 159 152 129 126 137 125 120 115 104 110 109 111 106 110 100 94 84 60 49 42 46 46 24 47 15 10 337 5 7 53 39 34 14 7 7 2 354 356
182 176 171 169 166 161 147 125 108 91 85 95 102 98 96 103 104 113 113 109 95 87 81 61 53 58 72 47 45 97 64 351 330 315 18 40 26 8 359 355 355 347 1
182 176 176 169 169 164 156 144 153 148 152 157 148 137 120 106 107 106 100 102 96 81 69 67 62 61 67 50 46 33 62 77 338 321 326 18 7 16 4 342 341 345 360
172 175 173 169 171 163 162 159 153 144 135 132 127 127 121 113 110 106 106 100 90 85 81 81 73 68 61 73 61 36 36 19 79 289 298 332 348 349 346 326 338 356 29
171 173 169 167 171 168 165 162 159 150 143 142 147 140 140 129 118 111 102 100 97 93 96 91 81 72 71 67 64 62 64 37 345 1 305 318 293 329 320 0 348 41 13